Notices

What's New in latest Release from April 7th, 2021:

- Updated Glossary, including Speed of Maximum Gust, and Total Hourly Precipitation

- Updated national and regional climate services offices contacts and prices information

- Addition of station inventory lists for 1981-2010, 1971-2000, and 1961-1990 Normals.

If you haven't already, please take our survey and provide feedback about our website: https://eccc.sondage-survey.ca/f/LanguageSelection.aspx?s=442ca660-fcf1-47c0-95a9-59707d6fd709

Hourly Data Report for August 24, 2015

IQALUIT CLIMATE
NUNAVUT

63°44'50.000" N
68°32'40.000" W
33.50 m
2402592
71321
XFB

Download Data

Hourly Data (August 2015)
Hourly Data Report for August 24, 2015
TIME
LST
Temp Definition
°C
Dew Point Definition
°C
Rel Hum Definition
%
Precip. Amount Definition
mm

Wind Dir Definition
10's deg

Wind Spd Definition
km/h
Visibility Definition
km
Stn Press Definition
kPa
Hmdx Definition


Wind Chill Definition


Weather Definition


00:00 -0.6 -1.5 94 0.0 4 1   102.21   -1 LegendNANA
01:00 0.0 -0.7 95 0.0 13 8   102.22   -3 LegendNANA
02:00 0.2 -0.8 93 0.0 13 11   102.26     LegendNANA
03:00 0.1 -1.0 93 0.0 15 13   102.28     LegendNANA
04:00 0.1 -0.6 95 0.0 15 11   102.31     LegendNANA
05:00 0.3 -0.4 95 0.0 15 9   102.37     LegendNANA
06:00 0.6 -0.3 94 0.0 12 11   102.40     LegendNANA
07:00 1.2 0.2 93 0.0 14 11   102.42     LegendNANA
08:00 1.4 -0.6 86 0.0 16 15   102.43     LegendNANA
09:00 1.6 -0.5 86 0.0 16 13   102.45     LegendNANA
10:00 2.2 -0.4 83 0.0 17 13   102.41     LegendNANA
11:00 2.5 -0.9 79 0.0 17 11   102.41     LegendNANA
12:00 3.8 -0.2 75 0.0 16 14   102.38     LegendNANA
13:00 4.2 0.8 79 0.0 15 14   102.36     LegendNANA
14:00 3.4 -0.1 78 0.0 16 13   102.34     LegendNANA
15:00 3.8 0.2 77 0.0 16 16   102.30     LegendNANA
16:00 3.3 -0.1 78 0.0 16 13   102.27     LegendNANA
17:00 3.2 -0.2 78 0.0 16 15   102.23     LegendNANA
18:00 2.7 -0.5 80 0.0 17 11   102.24     LegendNANA
19:00 2.3 0.1 86 0.0 15 11   102.29     LegendNANA
20:00 1.9 0.3 90 0.0 16 6   102.29     LegendNANA
21:00 1.0 0.0 93 0.0 14 5   102.28     LegendNANA
22:00 1.1 0.1 93 0.0 15 8   102.26     LegendNANA
23:00 1.3 0.2 93 0.0 13 9   102.24     LegendNANA

Notes on Data Quality.

Legend

  • E = Estimated
  • M = Missing
  • NA = Not Available*
  • [empty] = Indicates an unobserved value
Date modified: